星链-30447 (STARLINK-30447 )

导读

STARLINK-30447是美国SpaceX公司星链星座的一员,于2023年9月16日发射升空。它运行在近地轨道,属于星链第二代卫星,配备相控阵天线与激光星间链路,可实现高速卫星互联网接入,为全球偏远地区、海洋、航空等场景提供低时延宽带服务,助力全球空天地一体化网络建设,推动卫星互联网的普及应用。

基本信息
目录编号:
57874
目录名称:
STARLINK-30447
国际标识:
2023-144L
轨道中心:
EARTH
卫星名称:
星链-30447
卫星全名:
星链-30447 (STARLINK-30447 )
卫星状态:
在轨 (已飞行1006 天)
发射日期:
2023-09-16 UTC
国别 :
美国 (US)
星等 :
--
轨道信息
数据来源 国际轨道数据
星历时间: 2026-06-16T18:15:23+0800
2天前
查看轨道信息
半长轴: 6861.214km
偏心率: 0.0000923
轨道倾角: 43.001°
近地点辐角 269.571°
升交点赤经 61.840°
平近点角 90.504°
近地点: 482.443km
远地点: 483.711km
周期: 94.267分钟
每日圈数: 15.275707
详细信息
固有亮度:
5
最大亮度:
0.3
卫星平台:
Starlink v2.0 mini
覆盖范围:
全球
运营商:
太空探索技术公司
运营商所在国:
美国
制造商(研发单位):
太空探索技术公司
制造商所在国:
美国
使用方式:
暂无
卫星简介
星链(Starlink)计划是由太空探索技术公司(SpaceX)提出的一个巨型低轨卫星互联网星座项目,计划在2019年至2024年间在太空搭建由约1.2万颗卫星组成的“星链”网络,其中1584颗将部署在地球上空550千米处的近地轨道,并从2020年开始工作。该卫星仍在工作。
2D轨道图
3D轨道图
轨道高度分析图
轨道倾角分析图
轨道综合分析图
查看轨道综合分析图